Location: Overspoor
(51.4747°N, 5.6641°E)
Time: 21:43:24
(UTC+02:00)

KKS-1 - Visible Passes

Search period start: 26 June 2022 00:00
Search period end: 06 July 2022 00:00
Orbit: 636 x 647 km, 98.2° (Epoch: 26 June)

Date Brightness Start Highest point End Pass type
(mag) Time Alt. Az. Time Alt. Az. Time Alt. Az.
26 Jun ? 00:34:08 10° N 00:38:22 41° WNW 00:42:33 10° SW visible
26 Jun ? 23:21:32 10° NNE 23:25:52 45° E 23:29:55 11° S visible
27 Jun ? 00:58:26 10° N 01:02:11 27° WNW 01:05:55 10° WSW visible
27 Jun ? 23:45:25 10° NNE 23:49:56 75° ESE 23:54:10 11° S visible
28 Jun ? 01:22:57 10° NNW 01:25:57 18° WNW 01:28:56 10° W visible
29 Jun ? 00:09:27 10° N 00:13:55 68° WNW 00:18:21 10° SSW visible
29 Jun ? 01:47:56 10° NNW 01:49:37 12° NW 01:51:18 10° WNW visible
29 Jun ? 22:57:19 10° NE 23:01:10 27° E 23:04:59 10° SSE visible
30 Jun ? 00:33:35 10° N 00:37:49 42° WNW 00:42:01 10° SW visible
30 Jun ? 23:21:00 10° NNE 23:25:19 44° E 23:29:18 12° S visible
01 Jul ? 00:57:52 10° N 01:01:39 27° WNW 01:05:24 10° WSW visible
01 Jul ? 23:44:53 10° NNE 23:49:23 73° ESE 23:53:32 12° S visible
02 Jul ? 01:22:22 10° NNW 01:25:24 18° WNW 01:28:26 10° W visible
03 Jul ? 00:08:53 10° N 00:13:21 69° WNW 00:17:47 10° SSW visible
03 Jul ? 01:47:19 10° NNW 01:49:04 12° NW 01:50:50 10° WNW visible
03 Jul ? 22:56:47 10° NE 23:00:36 27° E 23:04:22 10° SSE visible
04 Jul ? 00:33:01 10° N 00:37:16 43° WNW 00:41:29 10° SW visible
04 Jul ? 23:20:27 10° NNE 23:24:44 43° E 23:28:38 12° S visible
05 Jul ? 00:57:18 10° N 01:01:06 28° WNW 01:04:52 10° WSW visible
05 Jul ? 23:44:19 10° NNE 23:48:49 71° ESE 23:52:51 12° S visible
